TimeCDT,TemperatureF,Dew PointF,Humidity,Sea Level PressureIn,VisibilityMPH,Wind Direction,Wind SpeedMPH,Gust SpeedMPH,PrecipitationIn,Events,Conditions,WindDirDegrees,DateUTC
12:53 AM,61.0,46.9,60,30.21,10.0,South,11.5,-,N/A,,Clear,190,2013-03-15 05:53:00
1:53 AM,57.9,48.0,70,30.21,10.0,South,10.4,-,N/A,,Clear,180,2013-03-15 06:53:00
2:53 AM,57.0,48.0,72,30.20,10.0,South,9.2,-,N/A,,Clear,190,2013-03-15 07:53:00
3:53 AM,55.9,48.9,77,30.19,10.0,South,11.5,-,N/A,,Clear,190,2013-03-15 08:53:00
4:53 AM,55.9,48.0,75,30.18,10.0,SSW,10.4,-,N/A,,Clear,200,2013-03-15 09:53:00
5:53 AM,54.0,48.0,80,30.18,10.0,South,10.4,-,N/A,,Clear,190,2013-03-15 10:53:00
6:53 AM,53.1,48.0,83,30.17,10.0,South,10.4,-,N/A,,Clear,190,2013-03-15 11:53:00
7:53 AM,53.1,48.9,86,30.18,10.0,South,9.2,-,N/A,,Clear,190,2013-03-15 12:53:00
8:53 AM,57.0,51.1,81,30.19,10.0,SSW,12.7,-,N/A,,Clear,200,2013-03-15 13:53:00
9:53 AM,62.1,52.0,70,30.19,10.0,SSW,17.3,-,N/A,,Clear,210,2013-03-15 14:53:00
10:53 AM,66.9,53.1,61,30.18,10.0,SSW,18.4,26.5,N/A,,Clear,200,2013-03-15 15:53:00
11:53 AM,70.0,50.0,49,30.16,10.0,SSW,19.6,-,N/A,,Clear,200,2013-03-15 16:53:00
12:53 PM,73.9,50.0,43,30.13,10.0,SSW,20.7,27.6,N/A,,Clear,200,2013-03-15 17:53:00
1:53 PM,75.9,50.0,40,30.10,10.0,South,19.6,24.2,N/A,,Clear,190,2013-03-15 18:53:00
2:53 PM,78.1,43.0,29,30.06,10.0,SSW,23.0,31.1,N/A,,Clear,210,2013-03-15 19:53:00
3:53 PM,78.1,43.0,29,30.04,10.0,SW,24.2,29.9,N/A,,Clear,220,2013-03-15 20:53:00
4:53 PM,78.1,42.1,28,30.01,10.0,SSW,18.4,26.5,N/A,,Clear,200,2013-03-15 21:53:00
5:53 PM,78.1,42.1,28,29.99,10.0,South,18.4,27.6,N/A,,Clear,190,2013-03-15 22:53:00
6:53 PM,75.9,41.0,29,29.98,10.0,South,12.7,-,N/A,,Clear,180,2013-03-15 23:53:00
7:53 PM,70.0,42.1,36,29.97,10.0,South,9.2,-,N/A,,Clear,180,2013-03-16 00:53:00
8:53 PM,66.9,44.1,44,29.97,10.0,South,9.2,-,N/A,,Clear,170,2013-03-16 01:53:00
9:53 PM,64.0,46.0,52,29.97,10.0,SSE,10.4,-,N/A,,Clear,160,2013-03-16 02:53:00
10:53 PM,66.9,48.9,52,29.97,10.0,South,12.7,-,N/A,,Clear,180,2013-03-16 03:53:00
11:53 PM,64.9,50.0,58,29.96,10.0,South,16.1,24.2,N/A,,Clear,180,2013-03-16 04:53:00